Regional Weather Roundup
Issued by NWS Newport/Morehead, NC

Current Version | Previous Version | Text Only | Print | Product List | Glossary Off
Versions: 1 2 3 4 5 6 7 8 9 10 11 12 13 14 15 16 17 18 19 20 21 22 23 24 25 26 27 28 29 30 31 32 33 34 35 36 37 38 39 40 41 42 43 44 45 46 47 48 49 50
846 ASUS42 KMHX 090512 RWRMHX WEATHER ROUNDUP FOR EASTERN NORTH CAROLINA NATIONAL WEATHER SERVICE NEWPORT/MOREHEAD CITY NC 1200 AM EST FRI DEC 09 2016 NOTE: "FAIR" INDICATES FEW OR NO CLOUDS BELOW 12,000 FEET WITH NO SIGNIFICANT WEATHER AND/OR OBSTRUCTIONS TO VISIBILITY NCZ015>017-031-032-045>047-102-103-090600- NORTH COAST CITY SKY/WX TMP DP RH WIND PRES REMARKS EDENTON PTCLDY 43 25 49 NW10 30.18S ELIZABETH CITY CLEAR 37 26 64 W13 30.16S KITTY HAWK CLOUDY 44 30 59 NW9 30.13S MANTEO CLOUDY 45 27 50 NW8G21 30.15F $$ NCZ045>047-081-094-103-104-090600- CENTRAL COAST CITY SKY/WX TMP DP RH WIND PRES REMARKS FRISCO PTCLDY 46 27 47 NW13G22 30.15S $$ NCZ095-097-098-100-101-090600- SOUTHERN COAST CITY SKY/WX TMP DP RH WIND PRES REMARKS BEAUFORT CLOUDY 47 28 47 NW13 30.18F CEDAR ISLAND NOT AVBL JACKSONVILLE CLOUDY 40 34 79 W6 30.20F PINEY ISLAND PTCLDY N/A N/A N/A NW12G21 30.16F WILMINGTON PTCLDY 41 30 65 NW5 30.21F $$ NCZ011>013-027>030-043-044-078>080-089-090>093-098-090600- COASTAL PLAIN CITY SKY/WX TMP DP RH WIND PRES REMARKS AHOSKIE CLEAR 32 26 78 CALM 30.19S CLINTON CLOUDY 38 32 78 CALM 30.24R ELIZABETHTOWN PTCLDY 42 28 58 CALM 30.23R GOLDSBORO CLOUDY 42 20 42 NW7 30.19F GREENVILLE CLEAR 39 25 56 NW6 30.21S HAVELOCK MOCLDY 43 27 53 W8 30.20S KENANSVILLE CLOUDY 41 27 56 W3 30.22S KINSTON CLOUDY 40 25 54 W6 30.21F NEW BERN CLOUDY 42 26 53 W6 30.20S RICHLANDS CLOUDY 36 34 92 CALM 30.21F ROCKY MOUNT CLEAR 38 21 50 NW9 30.21S WASHINGTON CLEAR 39 24 54 NW3 30.19S WHITEVILLE PTCLDY 41 34 77 CALM 30.23S $$ AMZ130-135-150-152-154-156-158-170-250-252-270-ANZ085-086-088-633-658-670-090600- MARINE OBSERVATIONS STATION/POSITION TIME TEMP WIND PRES WAVE SWELL AIR SEA DIR/SP/G HT/PER HT/PER (UTC) (F) (DEG/KT/KT) (MB) (FT/S) (FT/S) CHESAPEAKE LIGHT NOT AVBL 64 E VA BEACH 0450 50 58 310/ 21/ 27 1018.6 5/ 5 2/10 DUCK 0448 44 53 300/ 17/ 21 1020.1 2 E DUCK NOT AVBL OREGON INLET 0436 46 54 320/ 14/ 17 1020.6 13E OREGON INLT NOT AVBL HATTERAS CG 0448 48 59 320/ 22/ 25 1020.5 DIAMOND BUOY 0450 51 76 340/ 21/ 27 1020.1 6/ 5 2/10 CAPE LOOKOUT 0500 48 320/ 15/ 18 1021.1 BEAUFORT LAB 0448 46 54 320/ 8/ 14 1020.7 30 SE NEW RVR IN 0408 53 69 350/ 19/ 27 1022.0 30 SE NEW RVR IN NOT AVBL 27 SE WRIGHTSVLE 0408 52 67 350/ 16/ 23 1022.1 5 SE WRIGHTSVLE 0408 48 61 340/ 17/ 25 1022.5 225 S CAPE HAT 0450 70 74 330/ 19/ 23 1017.6 5/ 5 2/10 41 SE CHARLESTON 0450 57 74 350/ 17/ 23 1022.2 5/ 5 $$

USA.gov is the U.S. government's official web portal to all federal, state and local government web resources and services.